Skip Page Navigation
NASA JPL Caltech
NASA Logo - Jet Propulsion Laboratory + View the NASA Portal
+ Center for Near-Earth Object Studies
JPL Home Earth Solar System Stars & Galaxies Technology
JPL Solar System Dynamics
BODIES ORBITS EPHEMERIDES TOOLS PHYSICAL DATA DISCOVERY FAQ SITE MAP
JPL Small-Body Database Browser
Search: [ help ]  
134217 (2005 UZ336)
Classification: Main-belt Asteroid          SPK-ID: 2134217
Ephemeris | Orbit Diagram | Orbital Elements | Mission Design | Physical Parameters | Discovery Circumstances | Close-Approach Data ]

[ show orbit diagram ]
Orbital Elements at Epoch 2459000.5 (2020-May-31.0) TDB
Reference: JPL 21 (heliocentric ecliptic J2000)
 Element Value Uncertainty (1-sigma)   Units 
e .1066852140674362 4.4879e-08  
a 3.178242969037083 3.1337e-08 au
q 2.839171437527038 1.5183e-07 au
i 19.76282400531641 5.5287e-06 deg
node 113.8894347698861 1.2502e-05 deg
peri 329.4525691958835 2.6798e-05 deg
M 235.9673434960325 2.5198e-05 deg
tp 2459713.537899068920
(2022-May-14.03789907)
0.00014806 TDB
period 2069.564991189239
5.67
3.0609e-05
8.38e-08
d
yr
n .1739495988445052 2.5727e-09 deg/d
Q 3.517314500547128 3.468e-08 au
  Orbit Determination Parameters
   # obs. used (total)      649  
   data-arc span      7588 days (20.77 yr)  
   first obs. used      1999-12-05  
   last obs. used      2020-09-13  
   planetary ephem.      DE431  
   SB-pert. ephem.      SB431-N16  
   condition code      0  
   norm. resid. RMS      .56507  
   source      ORB  
   producer      Otto Matic  
   solution date      2020-Nov-12 16:10:51  

Additional Information
 Earth MOID = 1.87062 au 
 Jupiter MOID = 1.68497 au 
 T_jup = 3.100 
[ hide covariance matrix ]
Orbital Elements at Epoch 2457242.5 (2015-Aug-08.0) TDB
Reference: JPL 21 (heliocentric ecliptic J2000)
 Element Value Uncertainty (1-sigma)   Units 
e .1073175714127145 4.394e-08  
q 2.837143435353692 1.4809e-07 au
tp 2457625.075168165532
(2016-Aug-24.57516817)
0.00013969 TDB
node 114.1144919319973 1.2571e-05 deg
peri 326.3968588349413 2.6696e-05 deg
i 19.68831953569399 5.516e-06 deg
  Orbit Determination Parameters
   # obs. used (total)      649  
   data-arc span      7588 days (20.77 yr)  
   first obs. used      1999-12-05  
   last obs. used      2020-09-13  
   planetary ephem.      DE431  
   SB-pert. ephem.      SB431-N16  
   condition code      0  
   norm. resid. RMS      .56507  
   source      ORB  
   producer      Otto Matic  
   solution date      2020-Nov-12 16:10:51  

Additional Information
 Jupiter MOID = 1.68497 au 
 T_jup = 3.100 
Orbit Covariance (6×6)
  e q tp node peri i
e 1.930722382931675E-15 -6.403699432855268E-15 8.258587663379964E-13 -1.362145477048504E-15 1.947462577362496E-13 -1.086320155152957E-15
q -6.403699432855268E-15 2.193184505507473E-14 -1.884446308515984E-12 1.940822488217862E-16 -5.278581699724367E-13 6.707176737879336E-15
tp 8.258587663379964E-13 -1.884446308515984E-12 1.951289819981503E-8 -6.187487639297456E-12 3.301858699690239E-9 1.432686602860177E-11
node -1.362145477048504E-15 1.940822488217862E-16 -6.187487639297456E-12 1.58042485520174E-10 -1.496727782408453E-10 6.771352000622682E-12
peri 1.947462577362496E-13 -5.278581699724367E-13 3.301858699690239E-9 -1.496727782408453E-10 7.12663294060801E-10 -4.22244592960984E-12
i -1.086320155152957E-15 6.707176737879336E-15 1.432686602860177E-11 6.771352000622682E-12 -4.22244592960984E-12 3.042603805234146E-11

Ephemeris | Orbit Diagram | Orbital Elements | Mission Design | Physical Parameters | Discovery Circumstances | Close-Approach Data ]

Physical Parameter Table
Parameter Symbol Value Units Sigma Reference Notes
absolute magnitude H 14.4   n/a MPO439834  

134217 (2005 UZ336)          Discovered 2005-Oct-30 by Spacewatch at Kitt Peak
Reference: 20060711/Numbers.arcLast Updated: 2006-07-17

[ show close-approach data ]
Ephemeris | Orbit Diagram | Orbital Elements | Mission Design | Physical Parameters | Discovery Circumstances | Close-Approach Data ]
ABOUT SSD CREDITS/AWARDS PRIVACY/COPYRIGHT GLOSSARY LINKS
FirstGov 2020-Nov-23 23:35 UT
(server date/time)  
NASA Home Page
Site Manager:   Ryan S. Park
Webmaster  Alan B. Chamberlin